Tracking 25693 objects as of 1-Jul-2022
HD Live streaming from Space Station
objects crossing your sky now

DELTA 1 DEB

Track DELTA 1 DEB now!
10-day predictions


NORAD ID: 37671
Int'l Code: 1978-026KJ
Perigee: 794.7 km
Apogee: 838.7 km
Inclination: 98.9 °
Period: 101.1 minutes
Semi major axis: 7187 km
RCS: 0.0135 m2 (small)
Launch date: March 5, 1978
Source: United States (US)
Launch site: AIR FORCE WESTERN TEST RANGE (AFWTR)

Note: This is SATELLITE DEBRIS
aabbcc
Your satellite tracking list
Your tracking list is empty




NASA's NSSDC Master Catalog

Two Line Element Set (TLE):
1 37671U 78026KJ  22176.80404431  .00000478  00000-0  22408-3 0  9997
2 37671  98.8628 176.0308 0030663  50.3814 310.0064 14.24682610464968
Source of the keplerian elements: AFSPC